• In Moldova, Republic
  • List of Countries
  • For 7 days
  • Water Temperature
  • Satellite Maps
  • Weather Map
  • Weather Widgets
  • user-avatar
    Login

    Hourly Weather Ischgl

    Today, 24 June, Saturday

    Time Temperature Precipitation Wind Pressure Humidity
    00:00 +7°C° 0 mm 1 mps 578 mmHg 92%
    01:00 +7°C° 0 mm 1 mps 578 mmHg 95%
    02:00 +7°C° 0 mm 1 mps 578 mmHg 95%
    03:00 +7°C° 0 mm 1 mps 578 mmHg 94%
    04:00 +7°C° 0 mm 1 mps 578 mmHg 93%
    05:00 +9°C° 0 mm 1 mps 579 mmHg 86%
    06:00 +11°C° 0 mm 1 mps 580 mmHg 79%
    07:00 +13°C° 0 mm 0 mps 581 mmHg 72%
    08:00 +15°C° 0.1 mm 1 mps 582 mmHg 65%
    09:00 +18°C° 0.1 mm 1 mps 582 mmHg 58%
    10:00 +19°C° 0.1 mm 1 mps 583 mmHg 52%
    11:00 +19°C° 0.4 mm 1 mps 583 mmHg 54%
    12:00 +19°C° 0.4 mm 1 mps 583 mmHg 55%
    13:00 +19°C° 0.4 mm 2 mps 582 mmHg 57%
    14:00 +18°C° 1.1 mm 2 mps 582 mmHg 62%
    15:00 +17°C° 1.1 mm 2 mps 582 mmHg 67%
    16:00 +16°C° 1.1 mm 1 mps 581 mmHg 71%
    17:00 +15°C° 1 mm 1 mps 580 mmHg 77%
    18:00 +14°C° 1 mm 1 mps 580 mmHg 82%
    19:00 +13°C° 1 mm 1 mps 579 mmHg 88%
    20:00 +11°C° 0.5 mm 1 mps 578 mmHg 91%
    21:00 +9°C° 0.5 mm 1 mps 577 mmHg 94%
    22:00 +6°C° 0.5 mm 0 mps 577 mmHg 97%
    23:00 +6°C° 0.3 mm 0 mps 576 mmHg 97%

    Tomorrow, 25 June, Sunday

    Time Temperature Precipitation Wind Pressure Humidity
    00:00 +6°C° 0.3 mm 0 mps 576 mmHg 96%
    01:00 +5°C° 0.3 mm 0 mps 576 mmHg 96%
    02:00 +6°C° 0.5 mm 0 mps 576 mmHg 96%
    03:00 +6°C° 0.5 mm 0 mps 576 mmHg 96%
    04:00 +7°C° 0.5 mm 0 mps 576 mmHg 95%
    05:00 +9°C° 1 mm 1 mps 576 mmHg 94%
    06:00 +9°C° 1 mm 1 mps 577 mmHg 93%
    07:00 +10°C° 1 mm 1 mps 577 mmHg 92%
    08:00 +11°C° 1.6 mm 1 mps 577 mmHg 91%
    09:00 +11°C° 1.6 mm 1 mps 577 mmHg 90%
    10:00 +11°C° 1.6 mm 1 mps 577 mmHg 89%
    11:00 +10°C° 2.5 mm 1 mps 577 mmHg 89%
    12:00 +10°C° 2.5 mm 1 mps 577 mmHg 90%
    13:00 +9°C° 2.5 mm 2 mps 577 mmHg 90%
    14:00 +9°C° 1.1 mm 2 mps 577 mmHg 88%
    15:00 +9°C° 1.1 mm 2 mps 577 mmHg 85%
    16:00 +10°C° 1.1 mm 2 mps 577 mmHg 83%
    17:00 +9°C° 0.1 mm 2 mps 577 mmHg 83%
    18:00 +10°C° 0.1 mm 1 mps 577 mmHg 83%
    19:00 +10°C° 0.1 mm 1 mps 577 mmHg 84%
    20:00 +8°C° 0 mm 1 mps 576 mmHg 88%
    21:00 +6°C° 0 mm 1 mps 576 mmHg 92%
    22:00 +4°C° 0 mm 1 mps 575 mmHg 97%
    23:00 +4°C° 0 mm 1 mps 574 mmHg 96%

    Day after tomorrow, 26 June, Monday

    Time Temperature Precipitation Wind Pressure Humidity
    00:00 +3°C° 0 mm 1 mps 574 mmHg 96%
    01:00 +3°C° 0 mm 1 mps 574 mmHg 96%
    02:00 +3°C° 0 mm 1 mps 574 mmHg 94%
    03:00 +3°C° 0 mm 1 mps 574 mmHg 92%
    04:00 +2°C° 0 mm 1 mps 573 mmHg 91%
    05:00 +5°C° 0 mm 1 mps 575 mmHg 83%
    06:00 +8°C° 0 mm 1 mps 576 mmHg 75%
    07:00 +9°C° 0 mm 0 mps 577 mmHg 67%
    08:00 +12°C° 0 mm 0 mps 579 mmHg 57%
    09:00 +15°C° 0 mm 1 mps 580 mmHg 48%
    10:00 +19°C° 0 mm 1 mps 581 mmHg 38%
    11:00 +19°C° 0 mm 1 mps 581 mmHg 37%
    12:00 +20°C° 0 mm 1 mps 581 mmHg 35%
    13:00 +21°C° 0 mm 1 mps 581 mmHg 34%
    14:00 +19°C° 0 mm 2 mps 580 mmHg 39%
    15:00 +18°C° 0 mm 2 mps 580 mmHg 44%
    16:00 +17°C° 0 mm 2 mps 579 mmHg 48%
    17:00 +16°C° 0.3 mm 2 mps 579 mmHg 60%
    18:00 +14°C° 0.3 mm 1 mps 578 mmHg 72%
    19:00 +13°C° 0.3 mm 1 mps 577 mmHg 84%
    20:00 +12°C° 0.5 mm 1 mps 577 mmHg 86%
    21:00 +11°C° 0.5 mm 1 mps 577 mmHg 89%
    22:00 +9°C° 0.5 mm 1 mps 576 mmHg 92%
    23:00 +9°C° 0.8 mm 1 mps 576 mmHg 93%

    27 June, Tuesday

    Time Temperature Precipitation Wind Pressure Humidity
    00:00 +9°C° 0.8 mm 1 mps 576 mmHg 95%
    01:00 +9°C° 0.8 mm 1 mps 576 mmHg 96%
    02:00 +9°C° 0.1 mm 1 mps 575 mmHg 96%
    03:00 +8°C° 0.1 mm 1 mps 575 mmHg 96%
    04:00 +8°C° 0.1 mm 1 mps 575 mmHg 96%
    05:00 +9°C° 0.2 mm 1 mps 575 mmHg 95%
    06:00 +9°C° 0.2 mm 1 mps 575 mmHg 94%
    07:00 +10°C° 0.2 mm 1 mps 576 mmHg 92%
    08:00 +11°C° 0.3 mm 1 mps 576 mmHg 87%
    09:00 +12°C° 0.3 mm 1 mps 576 mmHg 81%
    10:00 +13°C° 0.3 mm 1 mps 577 mmHg 76%
    11:00 +14°C° 0.4 mm 1 mps 577 mmHg 73%
    12:00 +15°C° 0.4 mm 1 mps 577 mmHg 71%
    13:00 +15°C° 0.4 mm 1 mps 577 mmHg 69%
    14:00 +15°C° 0.8 mm 1 mps 577 mmHg 70%
    15:00 +15°C° 0.8 mm 1 mps 577 mmHg 71%
    16:00 +15°C° 0.8 mm 1 mps 577 mmHg 73%
    17:00 +14°C° 0.6 mm 1 mps 576 mmHg 77%
    18:00 +14°C° 0.6 mm 1 mps 576 mmHg 82%
    19:00 +13°C° 0.6 mm 1 mps 576 mmHg 86%
    20:00 +12°C° 0.2 mm 1 mps 575 mmHg 89%
    21:00 +10°C° 0.2 mm 1 mps 575 mmHg 92%
    22:00 +8°C° 0.2 mm 1 mps 574 mmHg 94%
    23:00 +8°C° 0.1 mm 1 mps 574 mmHg 94%

    28 June, Wednesday

    Time Temperature Precipitation Wind Pressure Humidity
    00:00 +7°C° 0.1 mm 2 mps 574 mmHg 94%
    01:00 +7°C° 0.1 mm 2 mps 573 mmHg 94%
    02:00 +6°C° 0 mm 2 mps 573 mmHg 94%
    03:00 +6°C° 0 mm 2 mps 573 mmHg 93%
    04:00 +6°C° 0 mm 2 mps 573 mmHg 93%
    05:00 +7°C° 0 mm 2 mps 573 mmHg 89%
    06:00 +9°C° 0 mm 2 mps 574 mmHg 86%
    07:00 +10°C° 0 mm 2 mps 574 mmHg 83%
    08:00 +13°C° 0 mm 2 mps 575 mmHg 74%
    09:00 +15°C° 0 mm 2 mps 576 mmHg 64%
    10:00 +17°C° 0 mm 2 mps 577 mmHg 55%
    11:00 +17°C° 0.2 mm 2 mps 577 mmHg 55%
    12:00 +17°C° 0.2 mm 2 mps 577 mmHg 56%
    13:00 +18°C° 0.2 mm 3 mps 577 mmHg 56%
    14:00 +17°C° 0.6 mm 3 mps 577 mmHg 59%
    15:00 +17°C° 0.6 mm 3 mps 576 mmHg 63%
    16:00 +17°C° 0.6 mm 3 mps 576 mmHg 66%
    17:00 +15°C° 0.9 mm 2 mps 575 mmHg 73%
    18:00 +14°C° 0.9 mm 2 mps 575 mmHg 80%
    19:00 +12°C° 0.9 mm 2 mps 574 mmHg 87%
    20:00 +10°C° 0.2 mm 2 mps 574 mmHg 88%
    21:00 +9°C° 0.2 mm 3 mps 574 mmHg 90%
    22:00 +8°C° 0.2 mm 3 mps 574 mmHg 91%
    23:00 +8°C° 0.1 mm 3 mps 573 mmHg 91%

    29 June, Thursday

    Time Temperature Precipitation Wind Pressure Humidity
    00:00 +8°C° 0.1 mm 3 mps 573 mmHg 92%
    01:00 +7°C° 0.1 mm 3 mps 573 mmHg 92%
    02:00 +7°C° 0.1 mm 3 mps 573 mmHg 91%
    03:00 +8°C° 0.1 mm 3 mps 573 mmHg 90%
    04:00 +8°C° 0.1 mm 3 mps 573 mmHg 89%
    05:00 +8°C° 0.6 mm 3 mps 573 mmHg 88%
    06:00 +9°C° 0.6 mm 3 mps 574 mmHg 86%
    07:00 +10°C° 0.6 mm 3 mps 574 mmHg 85%
    08:00 +11°C° 0.7 mm 3 mps 574 mmHg 80%
    09:00 +12°C° 0.7 mm 3 mps 575 mmHg 75%
    10:00 +13°C° 0.7 mm 3 mps 575 mmHg 70%
    11:00 +13°C° 0.9 mm 3 mps 575 mmHg 70%
    12:00 +14°C° 0.9 mm 3 mps 575 mmHg 70%
    13:00 +14°C° 0.9 mm 4 mps 575 mmHg 70%
    14:00 +14°C° 1.2 mm 3 mps 575 mmHg 72%
    15:00 +14°C° 1.2 mm 3 mps 574 mmHg 74%
    16:00 +13°C° 1.2 mm 3 mps 574 mmHg 75%
    17:00 +12°C° 2.9 mm 3 mps 573 mmHg 81%
    18:00 +11°C° 2.9 mm 3 mps 573 mmHg 88%
    19:00 +10°C° 2.9 mm 2 mps 572 mmHg 94%
    20:00 +9°C° 2 mm 3 mps 572 mmHg 94%
    21:00 +8°C° 2 mm 3 mps 571 mmHg 95%
    22:00 +8°C° 2 mm 3 mps 571 mmHg 96%
    23:00 +7°C° 1.3 mm 3 mps 571 mmHg 96%
    Show more